STARLINK-30050 (55695 NORAD) Tracking and Keplerian Element Data

This shows tracking and keplerian element data for the satellite.

Feedback or suggestion? Click here.




ElementValue
Catalog55695
NameSTARLINK-30050
Epoch Orbit130
Epoch Day62.91667824
Epoch Year2023
RAAN259.6579
Inclination43.0087
Eccentricity0.0001642
Argument of Perigee278.4135
Mean Anonmoly164.3946
Mean Motion15.62619292
Decay Rate-0.00434182
L11 55695U 23026A 23062.91667824 -.00434182 00000+0 -49753-2 0 9992
L22 55695 43.0087 259.6579 0001642 278.4135 164.3946 15.62619292 1300



Live tracking and technical data element details for STARLINK-30050 (NORAD 55695). STARLINK-30050 can be tracked NOW for your location showing map with azimuth and elevation plus other details from your city location.







IsCatalogInMostPopularTable: catalog: 55695, numindb: 1
Update: records affected: 1



GetName: 55695 STARLINK-30050

Hit Count: updated at: Wed, 22 Mar 2023 15:59:39 GMT